Dar El Beida, Algeria

12:00 AM CET on February 14, 2016 (GMT +0100)
Houari Boumediene

Weather History for DAAG - October, 2012

Change the Weather History Date:

Monday, October 8, 2012

  Actual Average Record
Temperature  
Mean Temperature 72 °F -  
Max Temperature 85 °F - - ()
Min Temperature 60 °F - - ()
Cooling Degree Days 8    
Growing Degree Days 22 (Base 50)    
Moisture  
Dew Point 65 °F    
Average Humidity 81    
Maximum Humidity 100    
Minimum Humidity 44    
Precipitation  
Precipitation 0.00 in - - ()
Sea Level Pressure  
Sea Level Pressure 30.13 in    
Wind  
Wind Speed 2 mph ()    
Max Wind Speed 9 mph    
Max Gust Speed -    
Visibility 2.8 miles    
Events Fog    
T = Trace of Precipitation, MM = Missing Value Source: Averaged Metar Reports

Daily Weather History Graph

Daily Weather History Graph

Search for Another Location

Airport or City:

Trip Planner

Search our weather history database for the weather conditions in past years. The results will help you decide how hot, cold, wet, or windy it might be!

Date:

Astronomy

Oct. 08, 2012 Rise Set
Actual Time 6:48 AM CET 6:19 PM CET
Civil Twilight 6:22 AM CET 6:45 PM CET
Nautical Twilight 5:52 AM CET 7:15 PM CET
Astronomical Twilight 5:22 AM CET 7:45 PM CET
Moon No Moon Rise 1:49 PM CET (10/8)
Length of Visible Light 12h 23m
Length of Day
11h 31m
Waning Gibbous, 48% of the Moon is Illuminated
Oct 8
Waning Gibbous
Oct 15
New
Oct 22
First Quarter
Oct 29
Full
Nov 7
Last Quarter

Hourly Weather History & Observations

Time (CET) Temp. Heat Index Dew Point Humidity Pressure Visibility Wind Dir Wind Speed Gust Speed Precip Events Conditions
12:00 AM 66.2 °F - 64.4 °F 94% 30.18 in 2.5 mi Calm Calm - N/A   Partly Cloudy
12:30 AM 66.2 °F - 66.2 °F 100% 30.18 in 2.5 mi SE 3.5 mph - N/A   Partly Cloudy
1:00 AM 66 °F - 66 °F 99% 30.18 in 2 mi South 3.5 mph - -   Mist
1:00 AM 66.2 °F - 66.2 °F 100% 30.18 in 2.5 mi South 3.5 mph - N/A   Partly Cloudy
1:30 AM 64.4 °F - 64.4 °F 100% 30.15 in 2.2 mi Calm Calm - N/A   Partly Cloudy
2:00 AM 64.4 °F - 64.4 °F 100% 30.15 in 1.6 mi Calm Calm - N/A   Partly Cloudy
2:30 AM 62.6 °F - 62.6 °F 100% 30.15 in 0.6 mi South 1.2 mph - N/A   Partly Cloudy
3:00 AM 62.6 °F - 62.6 °F 100% 30.15 in 0.9 mi Calm Calm - N/A   Partly Cloudy
3:30 AM 62.6 °F - 62.6 °F 100% 30.12 in 0.1 mi ESE 2.3 mph - N/A Fog Fog
4:00 AM 62 °F - 62 °F 100% 30.14 in 0 mi SSE 2.3 mph - - Fog Partial Fog
4:00 AM 62.6 °F - 62.6 °F 100% 30.12 in 0.1 mi SSE 2.3 mph - N/A Fog Fog
4:30 AM 60.8 °F - 60.8 °F 100% 30.12 in 0.1 mi Calm Calm - N/A Fog Fog
5:00 AM 62.6 °F - 62.6 °F 100% 30.12 in 0.1 mi East 2.3 mph - N/A Fog Fog
5:30 AM 60.8 °F - 60.8 °F 100% 30.12 in 0.1 mi SSE 3.5 mph - N/A Fog Fog
6:00 AM 62.6 °F - 62.6 °F 100% 30.12 in 0.1 mi Calm Calm - N/A Fog Fog
6:30 AM 62.6 °F - 62.6 °F 100% 30.12 in 0.1 mi Calm Calm - N/A Fog Fog
7:00 AM 62 °F - 62 °F 99% 30.14 in 0 mi 2.3 mph - -   Partly Cloudy
7:00 AM 62.6 °F - 62.6 °F 100% 30.12 in 0.1 mi Variable 2.3 mph - N/A Fog Fog
7:30 AM 64.4 °F - 64.4 °F 100% 30.15 in 0.1 mi Calm Calm - N/A Fog Fog
8:00 AM 64.4 °F - 64.4 °F 100% 30.15 in 0.1 mi South 1.2 mph - N/A Fog Fog
8:30 AM 66.2 °F - 66.2 °F 100% 30.15 in 2.2 mi Variable 1.2 mph - N/A   Partly Cloudy
9:00 AM 68.0 °F - 68.0 °F 100% 30.18 in 2.5 mi Calm Calm - N/A   Scattered Clouds
9:30 AM 71.6 °F - 68.0 °F 88% 30.18 in 3.7 mi Variable 1.2 mph - N/A   Partly Cloudy
10:00 AM 76 °F - 69 °F 73% 30.18 in 5 mi NNE 1.2 mph - -   Partly Cloudy
10:00 AM 75.2 °F - 69.8 °F 83% 30.18 in 5.0 mi Variable 1.2 mph - N/A   Unknown
10:30 AM 77.0 °F - 68.0 °F 74% 30.18 in - Variable 2.3 mph - N/A   Clear
11:00 AM 78.8 °F - 68.0 °F 69% 30.18 in - NNE 3.5 mph - N/A   Clear
11:30 AM 80.6 °F 83.2 °F 68.0 °F 65% 30.18 in - North 4.6 mph - N/A   Clear
12:00 PM 80.6 °F 83.2 °F 68.0 °F 65% 30.15 in - North 5.8 mph - N/A   Clear
12:30 PM 82.4 °F 85.4 °F 68.0 °F 62% 30.15 in - Variable 4.6 mph - N/A   Clear
1:00 PM 83 °F - 65 °F 46% 30.15 in 9 mi North 4.6 mph - -   Partly Cloudy
1:00 PM 82.4 °F 84.6 °F 66.2 °F 58% 30.15 in - North 4.6 mph - N/A   Clear
1:30 PM 84.2 °F 86.6 °F 66.2 °F 55% 30.12 in - NNW 9.2 mph - N/A   Clear
2:00 PM 84.2 °F 85.6 °F 64.4 °F 51% 30.12 in - NNE 6.9 mph - N/A   Clear
2:30 PM 86.0 °F 86.6 °F 62.6 °F 45% 30.12 in - NNW 8.1 mph - N/A   Clear
3:00 PM 84.2 °F 86.6 °F 66.2 °F 55% 30.09 in - North 8.1 mph - N/A   Clear
3:30 PM 84.2 °F 85.6 °F 64.4 °F 51% 30.09 in - NNW 9.2 mph - N/A   Clear
4:00 PM 83 °F - 64 °F 44% 30.11 in 16 mi NNE 8.1 mph - -   Clear
4:00 PM 84.2 °F 85.6 °F 64.4 °F 51% 30.09 in - NNE 8.1 mph - N/A   Clear
4:30 PM 82.4 °F 83.9 °F 64.4 °F 54% 30.09 in - NNE 5.8 mph - N/A   Clear
5:00 PM 80.6 °F 82.7 °F 66.2 °F 61% 30.09 in - NE 6.9 mph - N/A   Clear
5:30 PM 80.6 °F 82.3 °F 64.4 °F 58% 30.09 in - NNE 6.9 mph - N/A   Clear
6:00 PM 77.0 °F - 64.4 °F 65% 30.09 in - NNE 5.8 mph - N/A   Clear
6:30 PM 75.2 °F - 66.2 °F 73% 30.09 in - NE 5.8 mph - N/A   Clear
7:00 PM 74 °F - 66 °F 71% 30.11 in 9 mi NE 3.5 mph - -   Clear
7:00 PM 73.4 °F - 66.2 °F 78% 30.09 in - NE 3.5 mph - N/A   Clear
7:30 PM 73.4 °F - 66.2 °F 78% 30.09 in - ENE 4.6 mph - N/A   Clear
8:00 PM 71.6 °F - 66.2 °F 83% 30.09 in - ENE 3.5 mph - N/A   Clear
8:30 PM 69.8 °F - 66.2 °F 88% 30.09 in - NNE 4.6 mph - N/A   Clear
9:00 PM 69.8 °F - 66.2 °F 88% 30.09 in - Calm Calm - N/A   Clear
9:30 PM 66.2 °F - 62.6 °F 88% 30.09 in - SSE 2.3 mph - N/A   Clear
10:00 PM 65 °F - 62 °F 87% 30.10 in 5 mi South 1.2 mph - -   Scattered Clouds
10:00 PM 66.2 °F - 62.6 °F 88% 30.09 in 5.0 mi South 1.2 mph - N/A   Partly Cloudy
10:30 PM 64.4 °F - 60.8 °F 88% 30.09 in 5.0 mi SSW 1.2 mph - N/A   Partly Cloudy
11:00 PM 64.4 °F - 60.8 °F 88% 30.09 in 5.0 mi Calm Calm - N/A   Partly Cloudy
11:30 PM 62.6 °F - 60.8 °F 94% 30.09 in 5.0 mi Calm Calm - N/A   Partly Cloudy